Flag for U.S.A. Weather past 2 weeks in Cedar Rapids, Iowa, U.S.A.

Now
71 °F

Sunny.


Feels Like: 77 °F
Forecast: 55 / 73 °F
Wind: 7 mph from North

Location: Cedar Rapids Municipal Airport

Current Time: Jul 2, 2015 at 5:36:49 PM

Latest Report: Jul 2, 2015 at 3:52 PM


Visibility: 10 mi

Pressure: 29.98 "Hg

Humidity: 55%

Dew point: 54 °F

Location of Cedar RapidsLocation

Historic Weather in Cedar Rapids — Graph

°F

Cedar Rapids temperature yesterday

Maximum temperature yesterday: 72 °F (at 3:52 PM)
Minimum temperature yesterday: 59 °F (at 5:52 AM)
Average temperature yesterday: 66 °F

Past Weeks' High & Low Weather Summary

 TemperatureHumidityPressure
High81 °F (Jun 20, 4:52 PM)100% (Jun 17, 9:52 PM)30.18 "Hg (Jun 17, 9:52 PM)
Low55 °F (Jul 2, 5:52 AM)45% (Jun 27, 3:52 PM)29.72 "Hg (Jun 22, 5:52 PM)
Average69 °F84%29.93 "Hg
* Reported Jun 17 3:52 PM — Jul 2 3:52 PM, Cedar Rapids, Weather by CustomWeather, © 2015

Note: Actual official high and low records may vary slightly from our data, if they occured in-between our weather recording intervals... More about our weather records

Advertising

Cedar Rapids weather history for previous 24 hours

 ConditionsComfort  
Time TempWeatherWind HumidityBarometerVisibility
3:52 PM
Thu, Jul 2
71 °FSunny.7 mph55%29.98 "Hg10 mi
2:52 PM71 °FSunny.12 mph55%29.97 "Hg10 mi
1:52 PM69 °FSunny.13 mph55%29.98 "Hg10 mi
12:52 PM71 °FSunny.10 mph53%29.98 "Hg10 mi
11:52 AM69 °FSunny.12 mph55%29.99 "Hg10 mi
10:52 AM67 °FSunny.8 mph61%30.00 "Hg10 mi
9:52 AM64 °FSunny.13 mph63%30.01 "Hg10 mi
8:52 AM61 °FSunny.8 mph72%30.01 "Hg10 mi
7:52 AM58 °FSunny.9 mph84%29.99 "Hg10 mi
6:52 AM57 °FSunny.8 mph93%29.99 "Hg8 mi
5:52 AM55 °FClear.5 mph93%29.98 "Hg7 mi
4:52 AM57 °FOvercast.9 mph93%29.96 "Hg9 mi
3:52 AM58 °FOvercast.10 mph90%29.96 "Hg10 mi
2:52 AM58 °FPassing clouds.9 mph84%29.97 "Hg10 mi
1:52 AM58 °FClear.9 mph84%29.96 "Hg10 mi
12:52 AM59 °FClear.8 mph84%29.96 "Hg10 mi
11:52 PM
Wed, Jul 1
61 °FPassing clouds.8 mph81%29.97 "Hg10 mi
10:52 PM62 °FPassing clouds.8 mph80%29.96 "Hg10 mi
9:52 PM63 °FLight rain. Partly cloudy.10 mph81%29.96 "Hg10 mi
8:52 PM64 °FMore clouds than sun.12 mph78%29.93 "Hg10 mi
7:52 PM66 °FPartly sunny.9 mph75%29.94 "Hg10 mi
6:52 PM67 °FOvercast.12 mph73%29.94 "Hg10 mi
5:52 PM69 °FPassing clouds.13 mph73%29.92 "Hg10 mi
Weather by CustomWeather, © 2015

See weather overviewHow to use our weather pages